Regional Weather Roundup
Issued by NWS

Home | Current Version | Previous Version | Graphics & Text | Print | Product List | Glossary On
Versions: 1 2 3 4 5 6 7 8 9 10 11 12 13 14 15 16 17 18 19 20 21 22 23 24 25 26 27 28 29 30 31 32 33 34 35 36 37 38 39 40 41 42 43 44 45 46 47 48 49 50
000
ASUS43 KLOT 310710
RWRIL

ILLINOIS REGIONAL WEATHER ROUNDUP
NATIONAL WEATHER SERVICE CHICAGO/ROMEOVILLE IL
200 AM CDT SUN AUG 31 2014

NOTE: "FAIR" INDICATES FEW OR NO CLOUDS BELOW 12,000 FEET WITH NO
SIGNIFICANT WEATHER AND/OR OBSTRUCTIONS TO VISIBILITY.

* THESE STATIONS ARE NOT UNDER NWS QUALITY CONTROL. THEY ALSO MAY NOT
  REPORT WEATHER SUCH AS PRECIPITATION OR FOG.

ILZ001-002-007-009-015-016-024-310800-
NORTHWEST ILLINOIS

CITY           SKY/WX    TMP DP  RH WIND       PRES   REMARKS
MOLINE         FOG       65  63  93 CALM      29.91F VSB 3/4
STERLING*      CLEAR     64  63  94 CALM      29.92F
SAVANNA*       CLEAR     64  62  93 CALM      29.91F FOG
$$

ILZ003-004-008-010-011-017-018-310800-
NORTH CENTRAL ILLINOIS

CITY           SKY/WX    TMP DP  RH WIND       PRES   REMARKS
ROCKFORD       PTCLDY    65  63  93 CALM      29.92F
FREEPORT*      CLEAR     65  64  95 SW6       29.94F
ROCHELLE*      PTCLDY    64  62  96 CALM      29.92F
DE KALB*       PTCLDY    63  62  95 S7        29.93S
PERU*          MOCLDY    69  67  93 S5        29.92S
$$

ILZ005-006-012>014-019>023-310800-
NORTHEAST ILLINOIS

CITY           SKY/WX    TMP DP  RH WIND       PRES   REMARKS
CHICAGO-OHARE  CLOUDY    71  65  81 S5        29.91S
CHICAGO-MIDWAY CLOUDY    73  68  84 SW6       29.91F
AURORA         MOCLDY    65  63  93 CALM      29.92S FOG
LANSING*         N/A    N/A N/A N/A MISG        N/A
JOLIET*        CLOUDY    67  65  94 CALM      29.92F
WAUKEGAN       MOCLDY    67  64  90 SW6       29.90S
DUPAGE AIRPORT CLOUDY    69  66  90 S3        29.91S
KANKAKEE*      CLOUDY    68  66  93 S6        29.92F
WHEELING       MOCLDY    69  65  86 S5        29.92S
MORRIS*        CLOUDY    70  70 100 SW3       29.91S
ROMEOVILLE*    CLOUDY    67  67  99 S3        29.92S
NORTHERLY ISL    N/A     74  67  78 SW3         N/A
$$

LMZ740>746-310800-
SOUTHERN LAKE MICHIGAN

STATION/POSITION SKY/WX   TEMP    WIND        PRES    VSBY  WAVE
                          AIR SEA DIR/SP/G                  HT/PER
                          (F)     (DEG/KT/KT) (MB)    (MI)  (FT/S)
SOUTHERN BUOY              71 69  220/  8/  8 1012.3S         1/ 4
WAUKEGAN HARBOR            71     230/  5/  6   N/A
HARRISON CRIB              73     200/  9/ 10   N/A
BURNHAM HARBOR             73     230/  4/  7   N/A
CALUMET HARBOR             72     190/  5/  9 1011.8F
MICHIGAN CITY              69     180/  7/ 10   N/A
MICHIGAN CITY 6N           70 72  210/  8/ 12   N/A           1/ 3
ST. JOSEPH                 71 71  210/ 10/ 14   N/A           2/ 3
$$

ILZ025>027-034>036-040-047-049-050-058-095>099-310800-
WEST-CENTRAL ILLINOIS

CITY           SKY/WX    TMP DP  RH WIND       PRES   REMARKS
QUINCY         CLEAR     71  68  90 S5        29.91F
GALESBURG*     CLEAR     65  64  96 CALM      29.92S FOG
MACOMB*        CLEAR     65  64  98 CALM      29.94F
JACKSONVILLE*  PTCLDY    74  72  94 S3        29.93F
PITTSFIELD*    CLEAR     72  67  85 S5        29.93F
$$

ILZ028>032-037-038-041>044-048-051>054-059>061-310800-
CENTRAL ILLINOIS

CITY           SKY/WX    TMP DP  RH WIND       PRES   REMARKS
PONTIAC        CLOUDY    70  68  94 CALM      29.92F
DECATUR        CLOUDY    73  70  90 S10       29.95F
PEORIA         PTCLDY    72  66  81 CALM      29.92F
LACON*         PTCLDY    70  68  95 S3        29.91S
LINCOLN*       PTCLDY    73  71  94 S3        29.91S FOG
SPRINGFIELD    PTCLDY    74  71  91 S6        29.94S
TAYLORVILLE    CLOUDY    72  70  94 S9        29.95F
$$

ILZ033-039-045-046-055>057-062-063-310800-
EAST-CENTRAL ILLINOIS

CITY           SKY/WX    TMP DP  RH WIND       PRES   REMARKS
CHAMPAIGN      CLOUDY    73  70  90 S9        29.96S
DANVILLE*      HVY RAIN  71  70  97 S7        29.94S
RANTOUL*       MOCLDY    74  70  86 SW10      29.96S
MATTOON        LGT RAIN  73  70  90 S8        29.96F
PARIS*         CLOUDY    72  70  94 S9        29.98S
$$

ILZ079-100>102-310800-
SOUTHWEST ILLINOIS

CITY           SKY/WX    TMP DP  RH WIND       PRES   REMARKS
BELLEVILLE     PTCLDY    73  72  94 VRB3      29.94F
SPARTA*        CLEAR     72  71  96 S5        29.97S
$$

ILZ064>066-069>071-074>076-080>082-084>086-088>090-092>094-310800-
SOUTH-CENTRAL ILLINOIS

CITY           SKY/WX    TMP DP  RH WIND       PRES   REMARKS
CARBONDALE     MOCLDY    73  70  90 S6        29.98R
CAIRO*         CLOUDY    75  71  88 S6        29.99S
EFFINGHAM*     CLOUDY    73  68  86 S6        29.97F
MARION         CLOUDY    73  72  94 S5        29.99S
MT. VERNON     CLOUDY    73  68  83 S7        29.98F
CENTRALIA*     MOCLDY    72  68  88 S6        29.97S
SALEM*         MOCLDY    74  72  93 S6        29.97S
METROPOLIS*    CLOUDY    73  73 100 S3        29.99S
$$

ILZ067-068-072-073-078-083-087-091-310800-
SOUTHEAST ILLINOIS

CITY           SKY/WX    TMP DP  RH WIND       PRES   REMARKS
LAWRENCEVILLE  CLOUDY    71  70  96 CALM      29.99S FOG
FLORA*         CLOUDY    73  70  93 S8        29.98S
FAIRFIELD*     CLOUDY    73  72  94 CALM      29.98S
HARRISBURG*    CLOUDY    72  72 100 CALM      29.99F
ROBINSON*      CLOUDY    72  71  97 CALM      30.00S
CARMI*         CLOUDY    73  72  98 CALM      29.98S FOG
$$

ABBREVIATIONS USED IN REMARKS
   TC - TEMPERATURE IN CELSIUS
  WCI - WIND CHILL INDEX
   HX - HEAT INDEX
  VSB - VISIBILITY
$$




USA.gov is the U.S. government's official web portal to all federal, state and local government web resources and services.